Montauk, NY

8:03 PM EDT on March 26, 2017 (GMT -0400)
Montauk

Weather History for KMTP - September, 2013

Change the Weather History Date:

Sunday, September 22, 2013

  Actual Average (KHTO) Record (KHTO)
Temperature  
Mean Temperature 64 °F -  
Max Temperature 71 °F 71 °F 89 °F (1980)
Min Temperature 57 °F 53 °F 36 °F (1962)
Growing Degree Days 14 (Base 50)    
Moisture  
Dew Point 58 °F    
Average Humidity 76    
Maximum Humidity 97    
Minimum Humidity 55    
Precipitation  
Precipitation 0.45 in - - ()
Sea Level Pressure  
Sea Level Pressure 29.74 in    
Wind  
Wind Speed 9 mph (WNW)    
Max Wind Speed 16 mph    
Max Gust Speed 26 mph    
Averages and records for this station are not official NWS values.
T = Trace of Precipitation, MM = Missing Value Source: NWS Daily Summary

Daily Weather History Graph

Daily Weather History Graph

Search for Another Location

Airport or City:

Trip Planner

Search our weather history database for the weather conditions in past years. The results will help you decide how hot, cold, wet, or windy it might be!

Date:

Astronomy

Sep. 22, 2013 Rise Set
Actual Time 6:35 AM EDT 6:44 PM EDT
Civil Twilight 6:07 AM EDT 7:11 PM EDT
Nautical Twilight 5:35 AM EDT 7:44 PM EDT
Astronomical Twilight 5:02 AM EDT 8:16 PM EDT
Moon 8:30 PM EDT (9/22) 9:54 AM EDT (9/22)
Length of Visible Light 13h 04m
Length of Day
12h 09m
Waning Gibbous, 89% of the Moon is Illuminated
Sep 22
Waning Gibbous
Sep 26
Last Quarter
Oct 4
New
Oct 11
First Quarter
Oct 18
Full

Hourly Weather History & Observations

Time (EDT) Temp. Dew Point Humidity Pressure Visibility Wind Dir Wind Speed Gust Speed Precip Events Conditions
12:54 AM 69.1 °F 66.0 °F 90% 29.74 in - South 10.4 mph 16.1 mph 0.04 in   Unknown
1:54 AM 69.1 °F 66.9 °F 93% 29.71 in - Variable 6.9 mph - N/A   Unknown
2:54 AM 69.1 °F 66.9 °F 93% 29.69 in - South 8.1 mph 17.3 mph N/A   Unknown
3:54 AM 69.1 °F 66.9 °F 93% 29.67 in - South 9.2 mph - N/A   Unknown
4:54 AM 70.0 °F 68.0 °F 93% 29.68 in - South 11.5 mph 21.9 mph 0.03 in   Unknown
5:54 AM 66.9 °F 66.0 °F 97% 29.68 in - SSW 3.5 mph - 0.20 in   Unknown
6:54 AM 64.9 °F 63.0 °F 93% 29.70 in - West 5.8 mph - 0.08 in   Unknown
7:54 AM 64.0 °F 63.0 °F 96% 29.70 in - West 4.6 mph - 0.10 in   Unknown
8:54 AM 64.0 °F 62.1 °F 93% 29.71 in - WNW 6.9 mph - N/A   Unknown
9:54 AM 66.0 °F 62.1 °F 87% 29.73 in - WNW 5.8 mph - N/A   Unknown
10:54 AM 68.0 °F 63.0 °F 84% 29.72 in - Variable 3.5 mph - N/A   Unknown
11:54 AM 69.1 °F 62.1 °F 78% 29.73 in - WSW 5.8 mph - N/A   Unknown
12:54 PM 69.1 °F 61.0 °F 75% 29.72 in - West 6.9 mph - N/A   Unknown
1:54 PM 68.0 °F 57.0 °F 68% 29.72 in - NW 6.9 mph - N/A   Unknown
2:54 PM 70.0 °F 57.9 °F 65% 29.72 in - West 9.2 mph - N/A   Unknown
3:54 PM 70.0 °F 55.0 °F 59% 29.73 in - WNW 6.9 mph - N/A   Unknown
4:54 PM 69.1 °F 54.0 °F 58% 29.73 in - NW 9.2 mph - N/A   Unknown
5:54 PM 66.9 °F 52.0 °F 59% 29.75 in - NW 10.4 mph - N/A   Unknown
6:54 PM 64.9 °F 48.9 °F 56% 29.78 in - NW 13.8 mph - N/A   Unknown
7:54 PM 63.0 °F 46.9 °F 56% 29.81 in - NW 13.8 mph 20.7 mph N/A   Unknown
8:54 PM 61.0 °F 45.0 °F 56% 29.84 in - NW 16.1 mph 26.5 mph N/A   Unknown
9:54 PM 60.1 °F 44.1 °F 55% 29.86 in - NW 12.7 mph 21.9 mph N/A   Unknown
10:54 PM 59.0 °F 44.1 °F 58% 29.87 in - NW 15.0 mph 21.9 mph N/A   Unknown
11:54 PM 57.9 °F 44.1 °F 60% 29.87 in - NW 15.0 mph 23.0 mph N/A   Unknown